TimeMST,TemperatureF,Dew PointF,Humidity,Sea Level PressureIn,VisibilityMPH,Wind Direction,Wind SpeedMPH,Gust SpeedMPH,PrecipitationIn,Events,Conditions,WindDirDegrees,DateUTC
12:15 AM,3.9,0.5,86,30.17,10.0,Calm,Calm,-,N/A,,Clear,0,2013-01-05 07:15:00
12:35 AM,0.7,-2.7,86,30.17,10.0,Calm,Calm,-,N/A,,Clear,0,2013-01-05 07:35:00
12:55 AM,-9999,-9999,N/A,30.18,10.0,Calm,Calm,-,N/A,,Clear,0,2013-01-05 07:55:00
1:15 AM,-9999,-9999,N/A,30.18,10.0,Calm,Calm,-,N/A,,Clear,0,2013-01-05 08:15:00
1:35 AM,-9999,-9999,N/A,30.19,10.0,Calm,Calm,-,N/A,,Clear,0,2013-01-05 08:35:00
1:55 AM,-9999,-9999,N/A,30.19,10.0,Calm,Calm,-,N/A,,Clear,0,2013-01-05 08:55:00
2:15 AM,-9999,-9999,N/A,30.19,10.0,Calm,Calm,-,N/A,,Clear,0,2013-01-05 09:15:00
2:35 AM,-9999,-9999,N/A,30.19,10.0,Calm,Calm,-,N/A,,Clear,0,2013-01-05 09:35:00
2:55 AM,-9999,-9999,N/A,30.19,10.0,Calm,Calm,-,N/A,,Clear,0,2013-01-05 09:55:00
3:15 AM,-9999,-9999,N/A,30.19,10.0,Calm,Calm,-,N/A,,Clear,0,2013-01-05 10:15:00
3:35 AM,-9999,-9999,N/A,30.19,10.0,Calm,Calm,-,N/A,,Clear,0,2013-01-05 10:35:00
3:55 AM,-9999,-9999,N/A,30.20,10.0,Calm,Calm,-,N/A,,Clear,0,2013-01-05 10:55:00
4:15 AM,-9999,-9999,N/A,30.20,10.0,Calm,Calm,-,N/A,,Clear,0,2013-01-05 11:15:00
4:35 AM,-9999,-9999,N/A,30.21,10.0,Calm,Calm,-,N/A,,Clear,0,2013-01-05 11:35:00
4:55 AM,-9999,-9999,N/A,30.22,10.0,Calm,Calm,-,N/A,,Clear,0,2013-01-05 11:55:00
5:15 AM,-9999,-9999,N/A,30.23,10.0,NNE,3.5,-,N/A,,Clear,20,2013-01-05 12:15:00
5:35 AM,-9999,-9999,N/A,30.23,10.0,Calm,Calm,-,N/A,,Clear,0,2013-01-05 12:35:00
5:55 AM,-9999,-9999,N/A,30.24,10.0,Calm,Calm,-,N/A,,Clear,0,2013-01-05 12:55:00
6:15 AM,-9999,-9999,N/A,30.24,10.0,WNW,3.5,-,N/A,,Clear,290,2013-01-05 13:15:00
6:35 AM,-9999,-9999,N/A,30.25,10.0,Calm,Calm,-,N/A,,Clear,0,2013-01-05 13:35:00
6:55 AM,-9999,-9999,N/A,30.26,10.0,Calm,Calm,-,N/A,,Clear,0,2013-01-05 13:55:00
7:15 AM,-9999,-9999,N/A,30.26,10.0,Calm,Calm,-,N/A,,Clear,0,2013-01-05 14:15:00
7:35 AM,-9999,-9999,N/A,30.26,10.0,Calm,Calm,-,N/A,,Clear,0,2013-01-05 14:35:00
7:55 AM,-9999,-9999,N/A,30.26,10.0,Calm,Calm,-,N/A,,Clear,0,2013-01-05 14:55:00
8:15 AM,-9999,-9999,N/A,30.27,10.0,Calm,Calm,-,N/A,,Clear,0,2013-01-05 15:15:00
8:55 AM,3.6,-0.6,83,30.28,10.0,Calm,Calm,-,N/A,,Clear,0,2013-01-05 15:55:00
9:15 AM,5.5,2.5,87,30.29,10.0,Calm,Calm,-,N/A,,Clear,0,2013-01-05 16:15:00
9:55 AM,11.1,7.3,85,30.30,10.0,Calm,Calm,-,N/A,,Clear,0,2013-01-05 16:55:00
10:15 AM,13.5,7.2,76,30.30,10.0,Calm,Calm,-,N/A,,Clear,0,2013-01-05 17:15:00
10:35 AM,15.3,7.3,71,30.30,10.0,Calm,Calm,-,N/A,,Clear,0,2013-01-05 17:35:00
10:55 AM,16.7,7.7,68,30.30,10.0,Calm,Calm,-,N/A,,Clear,0,2013-01-05 17:55:00
11:15 AM,18.0,8.4,66,30.30,10.0,Calm,Calm,-,N/A,,Clear,0,2013-01-05 18:15:00
11:35 AM,20.5,8.6,60,30.29,10.0,Calm,Calm,-,N/A,,Clear,0,2013-01-05 18:35:00
11:55 AM,22.6,8.4,55,30.29,10.0,Calm,Calm,-,N/A,,Clear,0,2013-01-05 18:55:00
12:15 PM,23.5,9.0,54,30.28,10.0,SSW,3.5,-,N/A,,Clear,210,2013-01-05 19:15:00
12:35 PM,24.4,9.0,52,30.27,10.0,SW,3.5,-,N/A,,Clear,220,2013-01-05 19:35:00
12:55 PM,25.3,8.2,48,30.26,10.0,Calm,Calm,-,N/A,,Clear,0,2013-01-05 19:55:00
1:15 PM,26.1,8.4,47,30.26,10.0,SSW,3.5,-,N/A,,Clear,210,2013-01-05 20:15:00
1:35 PM,26.6,7.9,45,30.26,10.0,Calm,Calm,-,N/A,,Clear,0,2013-01-05 20:35:00
1:55 PM,27.3,7.7,44,30.26,10.0,Calm,Calm,-,N/A,,Clear,0,2013-01-05 20:55:00
2:15 PM,27.7,7.9,43,30.26,10.0,Calm,Calm,-,N/A,,Clear,0,2013-01-05 21:15:00
2:35 PM,27.7,7.2,42,30.26,10.0,Calm,Calm,-,N/A,,Clear,0,2013-01-05 21:35:00
2:55 PM,28.2,6.6,40,30.26,10.0,Calm,Calm,-,N/A,,Clear,0,2013-01-05 21:55:00
3:15 PM,28.4,6.3,39,30.27,10.0,Calm,Calm,-,N/A,,Clear,0,2013-01-05 22:15:00
3:35 PM,28.8,7.7,41,30.27,10.0,Calm,Calm,-,N/A,,Clear,0,2013-01-05 22:35:00
4:15 PM,28.9,7.3,40,30.27,10.0,Calm,Calm,-,N/A,,Clear,0,2013-01-05 23:15:00
4:35 PM,28.4,7.3,41,30.28,10.0,Calm,Calm,-,N/A,,Clear,0,2013-01-05 23:35:00
4:55 PM,20.1,6.6,56,30.28,10.0,Calm,Calm,-,N/A,,Clear,0,2013-01-05 23:55:00
5:15 PM,18.7,7.5,62,30.29,10.0,Calm,Calm,-,N/A,,Clear,0,2013-01-06 00:15:00
5:35 PM,18.7,6.3,58,30.30,10.0,Calm,Calm,-,N/A,,Clear,0,2013-01-06 00:35:00
5:55 PM,15.8,6.4,67,30.30,10.0,Calm,Calm,-,N/A,,Clear,0,2013-01-06 00:55:00
6:15 PM,16.3,7.5,68,30.30,10.0,Calm,Calm,-,N/A,,Clear,0,2013-01-06 01:15:00
6:55 PM,12.9,7.2,78,30.30,10.0,Calm,Calm,-,N/A,,Clear,0,2013-01-06 01:55:00
7:15 PM,13.6,7.3,76,30.31,10.0,Calm,Calm,-,N/A,,Clear,0,2013-01-06 02:15:00
7:35 PM,12.2,4.1,70,30.31,10.0,Calm,Calm,-,N/A,,Clear,0,2013-01-06 02:35:00
7:55 PM,11.8,6.6,80,30.31,10.0,Calm,Calm,-,N/A,,Clear,0,2013-01-06 02:55:00
8:15 PM,11.1,6.6,82,30.32,10.0,Calm,Calm,-,N/A,,Clear,0,2013-01-06 03:15:00
8:35 PM,10.8,5.5,79,30.32,10.0,Calm,Calm,-,N/A,,Clear,0,2013-01-06 03:35:00
8:55 PM,9.1,5.0,83,30.32,10.0,Calm,Calm,-,N/A,,Clear,0,2013-01-06 03:55:00
9:15 PM,8.2,2.1,76,30.33,10.0,Calm,Calm,-,N/A,,Clear,0,2013-01-06 04:15:00
9:35 PM,8.6,6.1,89,30.33,10.0,Calm,Calm,-,N/A,,Clear,0,2013-01-06 04:35:00
9:55 PM,7.3,3.0,82,30.34,10.0,Calm,Calm,-,N/A,,Clear,0,2013-01-06 04:55:00
10:15 PM,7.3,5.4,92,30.34,10.0,Calm,Calm,-,N/A,,Clear,0,2013-01-06 05:15:00
10:35 PM,10.2,5.2,80,30.34,10.0,Calm,Calm,-,N/A,,Clear,0,2013-01-06 05:35:00
10:55 PM,7.2,3.6,85,30.34,10.0,Calm,Calm,-,N/A,,Clear,0,2013-01-06 05:55:00
11:15 PM,7.3,5.0,90,30.34,10.0,Calm,Calm,-,N/A,,Clear,0,2013-01-06 06:15:00
11:35 PM,8.8,7.3,94,30.34,10.0,Calm,Calm,-,N/A,,Clear,0,2013-01-06 06:35:00
11:55 PM,6.1,4.3,92,30.33,10.0,Calm,Calm,-,N/A,,Clear,0,2013-01-06 06:55:00